DW4465 Weather Reports


time (UTC)temp
C
wind
direction
speed
KPH
gust
KPH
rain 1hr
cm
rain 24hr
cm
rain mn
cm
humidity
%
barometer
mb
20260831224550 28 165 4.8 17.7 0.00 0.00 0.00 51 1012.4
20260831223048 27 193 8.0 16.1 0.00 0.00 0.00 56 1012.5
20260831221547 27 169 8.0 17.7 0.00 0.00 0.00 56 1012.8
20260831220054 27 169 8.0 16.1 0.00 0.00 0.00 59 1012.9
20260831214549 27 198 6.4 14.5 0.00 0.00 0.00 58 1013.0
20260831213048 27 196 8.0 17.7 0.00 0.00 0.00 60 1013.3
20260831211554 27 198 8.0 14.5 0.00 0.00 0.00 61 1013.4
20260831210049 27 154 9.7 17.7 0.00 0.00 0.00 61 1013.4
20260831204555 27 202 4.8 16.1 0.00 0.00 0.00 61 1013.4
20260831203059 27 185 3.2 17.7 0.00 0.00 0.00 63 1013.4
20260831201547 27 216 3.2 16.1 0.00 0.00 0.00 63 1013.6
20260831200051 27 151 6.4 14.5 0.00 0.00 0.00 63 1013.6
20260831194549 27 191 6.4 14.5 0.00 0.00 0.00 64 1013.6
20260831193051 27 223 4.8 17.7 0.00 0.00 0.00 65 1013.8
20260831191547 27 180 6.4 16.1 0.00 0.00 0.00 63 1013.8
20260831190056 27 203 4.8 16.1 0.00 0.00 0.00 63 1013.9
20260831184551 27 176 3.2 9.7 0.00 0.00 0.00 63 1014.1
20260831183046 27 198 1.6 12.9 0.00 0.00 0.00 64 1014.0
20260831181554 27 185 3.2 14.5 0.00 0.00 0.00 66 1014.1
20260831180044 27 156 4.8 14.5 0.00 0.00 0.00 65 1013.9
20260831174552 27 167 3.2 8.0 0.00 0.00 0.00 65 1014.0
20260831173057 26 194 3.2 11.3 0.00 0.00 0.00 68 1014.0
20260831171544 25 212 1.6 6.4 0.00 0.00 0.00 71 1013.9
20260831170052 25 142 3.2 8.0 0.00 0.00 0.00 75 1013.8
20260831164549 23 333 0.0 4.8 0.00 0.00 0.00 78 1013.8
20260831163048 23 0 0.0 4.8 0.00 0.00 0.00 81 1013.7
20260831161603 22 187 1.6 6.4 0.00 0.00 0.00 83 1013.7
20260831160117 22 196 3.2 6.4 0.00 0.00 0.00 84 1013.7
20260831154618 22 186 0.0 4.8 0.00 0.00 0.00 85 1013.6
20260831153123 21 215 0.0 3.2 0.00 0.00 0.00 86 1013.6
20260831151558 21 0 0.0 1.6 0.00 0.00 0.00 86 1013.4
20260831150053 20 0 0.0 1.6 0.00 0.00 0.00 86 1013.5
20260831144549 20 0 0.0 1.6 0.00 0.00 0.00 86 1013.3
20260831143050 20 0 0.0 0.0 0.00 0.00 0.00 86 1013.2
20260831141557 19 0 0.0 1.6 0.00 0.00 0.00 85 1012.9
20260831140052 19 0 0.0 1.6 0.00 0.00 0.00 85 1012.9
20260831134548 18 0 0.0 0.0 0.00 0.00 0.00 85 1012.7
20260831133047 18 0 0.0 0.0 0.00 0.00 0.00 84 1012.6
20260831131550 19 0 0.0 0.0 0.00 0.00 0.00 84 1012.4
20260831130059 19 0 0.0 0.0 0.00 0.00 0.00 84 1012.4
20260831124553 19 0 0.0 0.0 0.00 0.00 0.00 84 1012.2
20260831123051 19 0 0.0 0.0 0.00 0.00 0.00 83 1012.1
20260831121549 19 0 0.0 0.0 0.00 0.00 0.00 83 1012.2
20260831120139 18 0 0.0 0.0 0.00 0.00 0.00 82 1012.1
20260831114548 19 0 0.0 0.0 0.00 0.00 0.00 82 1012.2
20260831113049 19 0 0.0 0.0 0.00 0.00 0.00 82 1012.2
20260831111559 19 0 0.0 0.0 0.00 0.00 0.00 81 1012.1
20260831110049 19 0 0.0 0.0 0.00 0.00 0.00 81 1012.2
20260831104549 19 0 0.0 0.0 0.00 0.00 0.00 80 1012.2
20260831103049 19 0 0.0 0.0 0.00 0.00 0.00 80 1012.3
20260831101606 19 0 0.0 0.0 0.00 0.00 0.00 80 1012.2
20260831100051 19 0 0.0 0.0 0.00 0.00 0.00 79 1012.2
20260831094601 20 0 0.0 0.0 0.00 0.00 0.00 79 1012.4
20260831093058 20 0 0.0 0.0 0.00 0.00 0.00 79 1012.3
20260831091554 20 0 0.0 0.0 0.00 0.00 0.00 78 1012.3
20260831090047 20 0 0.0 0.0 0.00 0.00 0.00 78 1012.3
20260831084602 20 0 0.0 0.0 0.00 0.00 0.00 77 1012.2
20260831083059 20 0 0.0 0.0 0.00 0.00 0.00 77 1012.3
20260831081557 20 0 0.0 1.6 0.00 0.00 0.00 77 1012.3
20260831080049 20 0 0.0 0.0 0.00 0.00 0.00 76 1012.3
20260831074559 21 0 0.0 0.0 0.00 0.00 0.00 76 1012.3
20260831073055 21 0 0.0 0.0 0.00 0.00 0.00 75 1012.3
20260831071552 21 0 0.0 0.0 0.00 0.00 0.00 75 1012.2
20260831070108 21 0 0.0 0.0 0.00 0.00 0.00 74 1012.1
20260831064553 21 0 0.0 0.0 0.00 0.00 0.00 74 1012.1
20260831063050 21 0 0.0 1.6 0.00 0.00 0.00 74 1012.1
20260831061546 22 291 0.0 1.6 0.00 0.00 0.00 73 1012.2
20260831060109 22 0 0.0 3.2 0.00 0.00 0.00 73 1012.1
20260831054554 22 0 0.0 1.6 0.00 0.00 0.00 71 1012.2
20260831053051 22 0 0.0 1.6 0.00 0.00 0.00 71 1012.3
20260831051603 22 0 0.0 1.6 0.00 0.00 0.00 70 1012.2
20260831050049 22 291 0.0 4.8 0.00 0.00 0.00 69 1012.2
20260831044554 22 0 0.0 1.6 0.00 0.00 0.00 68 1012.3
20260831043048 23 321 0.0 4.8 0.00 0.00 0.00 68 1012.0
20260831041544 23 0 0.0 4.8 0.00 0.00 0.00 67 1011.8
20260831040058 23 0 0.0 4.8 0.00 0.00 0.00 67 1011.7
20260831034549 23 240 1.6 4.8 0.00 0.00 0.00 67 1011.6
20260831033050 23 303 1.6 6.4 0.00 0.00 0.00 67 1011.3
20260831031558 23 0 1.6 11.3 0.00 0.00 0.00 67 1010.8
20260831030051 23 289 1.6 11.3 0.00 0.00 0.00 68 1010.8
20260831024611 23 0 1.6 9.7 0.00 0.00 0.00 69 1010.7
20260831023050 24 298 3.2 14.5 0.00 0.00 0.00 70 1010.7
20260831021559 25 303 1.6 6.4 0.00 0.00 0.00 70 1010.6
20260831020050 25 0 1.6 11.3 0.00 0.00 0.00 68 1010.5
20260831014557 26 269 1.6 8.0 0.00 0.00 0.00 67 1010.6
20260831013056 26 268 1.6 9.7 0.00 0.00 0.00 66 1010.5
20260831011551 27 0 1.6 8.0 0.00 0.00 0.00 65 1010.4
20260831010121 27 277 3.2 9.7 0.00 0.00 0.00 65 1010.3
20260831004558 27 177 4.8 12.9 0.00 0.00 0.00 65 1010.3
20260831003055 28 144 8.0 17.7 0.00 0.00 0.00 64 1010.5
20260831001558 28 167 8.0 19.3 0.00 0.00 0.00 62 1010.4
20260831000054 28 177 8.0 17.7 0.00 0.00 0.00 60 1010.4
20260830234549 28 184 8.0 17.7 0.00 0.00 0.00 61 1010.4
20260830233045 28 165 6.4 17.7 0.00 0.00 0.00 61 1010.3
20260830231558 28 226 4.8 17.7 0.00 0.00 0.00 61 1010.5
20260830230055 28 183 6.4 16.1 0.00 0.00 0.00 60 1010.6